User: anonymous   Login
Location: Theydon Bois
(51.6750°N, 0.1050°E)
Time: 07:11:52
(UTC+01:00)
Language:

SL-27 R/B - Orbit

View from above orbital plane
View from above orbital plane
View from above satellite
View from above satellite

Ground track
Ground track

The orbit data is extracted from the following two-line orbital elements,

1 40354U 14084B   17296.53470394 +.00001801 +00000-0 +47398-4 0  9998
2 40354 074.7401 228.1860 0039826 187.8684 172.1908 15.38552935159197
Epoch (UTC): 23 October 2017 12:49:58
Eccentricity: 0.0039826
inclination: 74.7401°
perigee height: 423 km
apogee height: 477 km
right ascension of ascending node: 228.1860°
argument of perigee: 187.8684°
revolutions per day: 15.38552935
mean anomaly at epoch: 172.1908°
orbit number at epoch: 15919

The dashed part of the orbit path shows where the satellite is in the earth's shadow,  

DLR